Time,TemperatureF,DewpointF,PressureIn,WindDirection,WindDirectionDegrees,WindSpeedMPH,WindSpeedGustMPH,Humidity,HourlyPrecipIn,Conditions,Clouds,dailyrainin,SoftwareType,DateUTC
2013-06-06 00:02:00,59.0,47.0,29.87,East,91,0.0,0.0,65,0.00,,,0.03,,2013-06-06 05:02:00,
2013-06-06 00:12:00,59.0,47.0,29.87,East,91,0.0,0.0,65,0.00,,,0.03,,2013-06-06 05:12:00,
2013-06-06 00:22:00,59.0,47.0,29.87,East,91,0.0,0.0,65,0.00,,,0.03,,2013-06-06 05:22:00,
2013-06-06 00:32:00,59.0,48.0,29.86,East,90,0.0,0.0,67,0.00,,,0.03,,2013-06-06 05:32:00,
2013-06-06 00:42:00,59.0,48.0,29.86,East,90,0.0,0.0,67,0.00,,,0.03,,2013-06-06 05:42:00,
2013-06-06 00:52:00,59.0,48.0,29.86,East,90,0.0,0.0,67,0.00,,,0.01,,2013-06-06 05:52:00,
2013-06-06 01:02:00,59.0,48.0,29.86,East,90,0.0,0.0,67,0.00,,,0.01,,2013-06-06 06:02:00,
2013-06-06 01:12:00,59.0,48.0,29.86,East,90,0.0,0.0,67,0.00,,,0.01,,2013-06-06 06:12:00,
2013-06-06 01:22:00,59.0,48.0,29.85,East,90,0.0,0.0,68,0.00,,,0.01,,2013-06-06 06:22:00,
2013-06-06 01:32:00,59.0,49.0,29.85,East,91,0.0,0.0,69,0.00,,,0.01,,2013-06-06 06:32:00,
2013-06-06 01:42:00,59.0,49.0,29.85,East,91,0.0,0.0,69,0.00,,,0.01,,2013-06-06 06:42:00,
2013-06-06 01:52:00,59.0,49.0,29.85,East,91,0.0,0.0,70,0.00,,,0.01,,2013-06-06 06:52:00,
2013-06-06 02:02:00,58.0,49.0,29.85,East,90,0.0,0.0,72,0.00,,,0.01,,2013-06-06 07:02:00,
2013-06-06 02:12:00,58.0,49.0,29.85,East,90,0.0,0.0,72,0.00,,,0.01,,2013-06-06 07:12:00,
2013-06-06 02:22:00,57.0,49.0,29.85,East,91,0.0,0.0,74,0.00,,,0.01,,2013-06-06 07:22:00,
2013-06-06 02:32:00,57.0,49.0,29.85,East,91,0.0,0.0,74,0.00,,,0.01,,2013-06-06 07:32:00,
2013-06-06 02:42:00,57.0,49.0,29.85,East,91,0.0,0.0,74,0.00,,,0.01,,2013-06-06 07:42:00,
2013-06-06 02:52:00,57.0,49.0,29.85,East,91,0.0,0.0,74,0.00,,,0.01,,2013-06-06 07:52:00,
2013-06-06 03:02:00,57.0,49.0,29.83,East,91,0.0,0.0,74,0.00,,,0.01,,2013-06-06 08:02:00,
2013-06-06 03:12:00,57.0,49.0,29.83,East,91,0.0,0.0,74,0.00,,,0.01,,2013-06-06 08:12:00,
2013-06-06 03:22:00,57.0,49.0,29.83,East,90,0.0,0.0,75,0.00,,,0.01,,2013-06-06 08:22:00,
2013-06-06 03:32:00,57.0,49.0,29.83,East,91,0.0,0.0,75,0.00,,,0.01,,2013-06-06 08:32:00,
2013-06-06 03:42:00,56.0,49.0,29.82,East,91,0.0,0.0,78,0.00,,,0.01,,2013-06-06 08:42:00,
2013-06-06 03:52:00,56.0,49.0,29.82,East,91,0.0,0.0,78,0.00,,,0.01,,2013-06-06 08:52:00,
2013-06-06 04:02:00,56.0,50.0,29.82,East,90,0.0,0.0,79,0.00,,,0.01,,2013-06-06 09:02:00,
2013-06-06 04:12:00,56.0,50.0,29.82,East,90,0.0,0.0,79,0.00,,,0.01,,2013-06-06 09:12:00,
2013-06-06 04:22:00,55.0,50.0,29.82,East,90,0.0,0.0,82,0.00,,,0.01,,2013-06-06 09:22:00,
2013-06-06 04:33:00,56.0,50.0,29.81,East,90,0.0,0.0,81,0.00,,,0.01,,2013-06-06 09:33:00,
2013-06-06 04:43:00,56.0,50.0,29.81,East,90,0.0,0.0,81,0.00,,,0.01,,2013-06-06 09:43:00,
2013-06-06 04:53:00,56.0,50.0,29.81,East,90,0.0,0.0,81,0.00,,,0.01,,2013-06-06 09:53:00,
2013-06-06 05:03:00,57.0,51.0,29.81,East,90,0.0,0.0,80,0.00,,,0.01,,2013-06-06 10:03:00,
2013-06-06 05:12:00,57.0,51.0,29.81,East,90,0.0,0.0,80,0.00,,,0.01,,2013-06-06 10:12:00,
2013-06-06 05:23:00,57.0,51.0,29.81,East,90,0.0,0.0,80,0.00,,,0.01,,2013-06-06 10:23:00,
2013-06-06 05:33:00,57.0,51.0,29.81,East,90,0.0,0.0,80,0.00,,,0.01,,2013-06-06 10:33:00,
2013-06-06 05:42:00,57.0,51.0,29.81,East,90,0.0,0.0,80,0.00,,,0.01,,2013-06-06 10:42:00,
2013-06-06 05:52:00,57.0,51.0,29.81,East,90,0.0,0.0,80,0.00,,,0.01,,2013-06-06 10:52:00,
2013-06-06 06:02:00,57.0,52.0,29.81,East,91,0.0,0.0,82,0.00,,,0.01,,2013-06-06 11:02:00,
2013-06-06 06:12:00,57.0,52.0,29.81,East,91,0.0,0.0,82,0.00,,,0.01,,2013-06-06 11:12:00,
2013-06-06 06:22:00,57.0,52.0,29.81,East,91,0.0,0.0,82,0.00,,,0.01,,2013-06-06 11:22:00,
2013-06-06 06:32:00,57.0,52.0,29.81,East,91,0.0,0.0,82,0.00,,,0.01,,2013-06-06 11:32:00,
2013-06-06 06:42:00,57.0,52.0,29.81,East,91,0.0,0.0,82,0.00,,,0.01,,2013-06-06 11:42:00,
2013-06-06 06:52:00,58.0,52.0,29.82,East,91,0.0,0.0,80,0.00,,,0.01,,2013-06-06 11:52:00,
2013-06-06 07:03:00,58.0,52.0,29.82,East,91,0.0,0.0,80,0.00,,,0.01,,2013-06-06 12:03:00,
2013-06-06 07:12:00,58.0,52.0,29.82,East,91,0.0,0.0,80,0.00,,,0.01,,2013-06-06 12:12:00,
2013-06-06 07:22:00,58.0,52.0,29.82,East,91,0.0,0.0,80,0.00,,,0.01,,2013-06-06 12:22:00,
2013-06-06 07:33:00,61.0,53.0,29.83,East,80,0.0,1.0,74,0.00,,,0.00,,2013-06-06 12:33:00,
2013-06-06 07:43:00,61.0,53.0,29.83,East,80,0.0,1.0,74,0.00,,,0.00,,2013-06-06 12:43:00,
2013-06-06 07:53:00,62.0,53.0,29.83,NNE,19,0.0,0.0,73,0.00,,,0.00,,2013-06-06 12:53:00,
2013-06-06 08:03:00,63.0,54.0,29.83,North,355,0.0,0.0,72,0.00,,,0.00,,2013-06-06 13:03:00,
2013-06-06 08:13:00,63.0,54.0,29.83,North,355,0.0,0.0,72,0.00,,,0.00,,2013-06-06 13:13:00,
2013-06-06 08:22:00,63.0,54.0,29.83,North,355,0.0,0.0,72,0.00,,,0.00,,2013-06-06 13:22:00,
2013-06-06 08:32:00,62.0,54.0,29.84,NW,306,0.0,0.0,75,0.00,,,0.00,,2013-06-06 13:32:00,
2013-06-06 08:43:00,62.0,54.0,29.84,NW,306,0.0,0.0,75,0.00,,,0.00,,2013-06-06 13:43:00,
2013-06-06 08:53:00,62.0,54.0,29.84,NW,306,0.0,0.0,75,0.00,,,0.00,,2013-06-06 13:53:00,
2013-06-06 09:03:00,62.0,55.0,29.84,NW,306,0.0,0.0,77,0.00,,,0.00,,2013-06-06 14:03:00,
2013-06-06 09:13:00,62.0,55.0,29.84,NW,306,0.0,0.0,77,0.00,,,0.00,,2013-06-06 14:13:00,
2013-06-06 09:22:00,63.0,55.0,29.84,NW,313,0.0,0.0,75,0.00,,,0.00,,2013-06-06 14:22:00,
2013-06-06 09:33:00,63.0,55.0,29.85,North,0,0.0,0.0,75,0.00,,,0.00,,2013-06-06 14:33:00,
2013-06-06 09:43:00,63.0,55.0,29.85,North,0,0.0,0.0,75,0.00,,,0.00,,2013-06-06 14:43:00,
2013-06-06 09:52:00,64.0,56.0,29.85,NNE,27,0.0,0.0,74,0.00,,,0.00,,2013-06-06 14:52:00,
2013-06-06 10:03:00,64.0,56.0,29.85,NNE,27,0.0,0.0,74,0.00,,,0.00,,2013-06-06 15:03:00,
2013-06-06 10:13:00,64.0,56.0,29.85,NNE,27,0.0,0.0,74,0.00,,,0.00,,2013-06-06 15:13:00,
2013-06-06 10:23:00,65.0,55.0,29.85,North,355,0.0,4.0,71,0.00,,,0.00,,2013-06-06 15:23:00,
2013-06-06 10:33:00,66.0,56.0,29.85,WSW,239,0.0,0.0,70,0.00,,,0.00,,2013-06-06 15:33:00,
2013-06-06 10:43:00,66.0,56.0,29.85,WSW,239,0.0,0.0,70,0.00,,,0.00,,2013-06-06 15:43:00,
2013-06-06 10:53:00,66.0,55.0,29.83,NE,41,1.0,6.0,68,0.00,,,0.00,,2013-06-06 15:53:00,
2013-06-06 11:03:00,66.0,55.0,29.83,NE,41,1.0,6.0,68,0.00,,,0.00,,2013-06-06 16:03:00,
2013-06-06 11:12:00,66.0,55.0,29.83,NE,41,1.0,6.0,68,0.00,,,0.00,,2013-06-06 16:12:00,
2013-06-06 11:23:00,66.0,55.0,29.83,NE,41,1.0,6.0,68,0.00,,,0.00,,2013-06-06 16:23:00,
2013-06-06 11:33:00,67.0,54.0,29.83,North,355,1.0,6.0,64,0.00,,,0.00,,2013-06-06 16:33:00,
2013-06-06 11:44:00,67.0,54.0,29.83,North,355,1.0,6.0,64,0.00,,,0.00,,2013-06-06 16:44:00,
2013-06-06 11:53:00,68.0,53.0,29.83,NNE,24,0.0,8.0,59,0.00,,,0.00,,2013-06-06 16:53:00,
2013-06-06 12:03:00,68.0,53.0,29.83,NNE,13,1.0,10.0,58,0.00,,,0.00,,2013-06-06 17:03:00,
2013-06-06 12:13:00,68.0,53.0,29.83,NNE,13,1.0,10.0,58,0.00,,,0.00,,2013-06-06 17:13:00,
2013-06-06 12:23:00,68.0,51.0,29.83,North,5,2.0,10.0,55,0.00,,,0.00,,2013-06-06 17:23:00,
2013-06-06 12:33:00,69.0,51.0,29.83,North,11,2.0,6.0,52,0.00,,,0.00,,2013-06-06 17:33:00,
2013-06-06 12:43:00,69.0,51.0,29.83,North,11,2.0,6.0,52,0.00,,,0.00,,2013-06-06 17:43:00,
2013-06-06 12:52:00,70.0,52.0,29.83,NE,41,1.0,6.0,52,0.00,,,0.00,,2013-06-06 17:52:00,
2013-06-06 13:03:00,70.0,51.0,29.83,WSW,242,0.0,1.0,51,0.00,,,0.00,,2013-06-06 18:03:00,
2013-06-06 13:13:00,70.0,51.0,29.83,WSW,242,0.0,1.0,51,0.00,,,0.00,,2013-06-06 18:13:00,
2013-06-06 13:23:00,70.0,51.0,29.83,WSW,242,0.0,1.0,51,0.00,,,0.00,,2013-06-06 18:23:00,
2013-06-06 13:33:00,70.0,52.0,29.83,WNW,286,0.0,5.0,53,0.00,,,0.00,,2013-06-06 18:33:00,
2013-06-06 13:43:00,70.0,52.0,29.83,WNW,286,0.0,5.0,53,0.00,,,0.00,,2013-06-06 18:43:00,
2013-06-06 13:53:00,71.0,50.0,29.83,North,0,0.0,4.0,48,0.00,,,0.00,,2013-06-06 18:53:00,
2013-06-06 14:03:00,72.0,49.0,29.83,North,355,0.0,9.0,44,0.00,,,0.00,,2013-06-06 19:03:00,
2013-06-06 14:13:00,72.0,49.0,29.83,North,355,0.0,9.0,44,0.00,,,0.00,,2013-06-06 19:13:00,
2013-06-06 14:23:00,72.0,49.0,29.83,North,0,0.0,4.0,45,0.00,,,0.00,,2013-06-06 19:23:00,
2013-06-06 14:33:00,72.0,49.0,29.83,North,0,0.0,4.0,45,0.00,,,0.00,,2013-06-06 19:33:00,
2013-06-06 14:43:00,72.0,49.0,29.83,North,0,0.0,4.0,45,0.00,,,0.00,,2013-06-06 19:43:00,
2013-06-06 14:52:00,72.0,49.0,29.83,North,0,0.0,4.0,45,0.00,,,0.00,,2013-06-06 19:52:00,
2013-06-06 15:33:00,71.0,49.0,29.82,North,0,1.0,5.0,45,0.00,,,0.00,,2013-06-06 20:33:00,
2013-06-06 15:43:00,71.0,49.0,29.82,North,0,1.0,5.0,45,0.00,,,0.00,,2013-06-06 20:43:00,
2013-06-06 15:53:00,71.0,49.0,29.82,North,0,1.0,5.0,45,0.00,,,0.00,,2013-06-06 20:53:00,
2013-06-06 16:03:00,71.0,48.0,29.82,North,355,0.0,4.0,44,0.00,,,0.00,,2013-06-06 21:03:00,
2013-06-06 16:13:00,71.0,48.0,29.82,North,355,0.0,4.0,44,0.00,,,0.00,,2013-06-06 21:13:00,
2013-06-06 16:23:00,71.0,48.0,29.82,North,355,0.0,4.0,44,0.00,,,0.00,,2013-06-06 21:23:00,
2013-06-06 16:33:00,73.0,48.0,29.81,North,0,0.0,6.0,41,0.00,,,0.00,,2013-06-06 21:33:00,
2013-06-06 16:44:00,73.0,48.0,29.81,North,0,0.0,6.0,41,0.00,,,0.00,,2013-06-06 21:44:00,
2013-06-06 16:53:00,73.0,48.0,29.81,North,0,0.0,6.0,41,0.00,,,0.00,,2013-06-06 21:53:00,
2013-06-06 17:03:00,71.0,47.0,29.82,NNE,26,1.0,9.0,42,0.00,,,0.00,,2013-06-06 22:03:00,
2013-06-06 17:13:00,71.0,47.0,29.82,NNE,26,1.0,9.0,42,0.00,,,0.00,,2013-06-06 22:13:00,
2013-06-06 17:23:00,70.0,47.0,29.82,NE,51,3.0,10.0,44,0.00,,,0.00,,2013-06-06 22:23:00,
2013-06-06 17:33:00,72.0,50.0,29.82,WNW,284,0.0,0.0,46,0.00,,,0.00,,2013-06-06 22:33:00,
2013-06-06 17:43:00,72.0,50.0,29.82,WNW,284,0.0,0.0,46,0.00,,,0.00,,2013-06-06 22:43:00,
2013-06-06 17:53:00,71.0,47.0,29.82,NE,49,1.0,5.0,43,0.00,,,0.00,,2013-06-06 22:53:00,
2013-06-06 18:02:00,71.0,47.0,29.82,NE,49,1.0,5.0,43,0.00,,,0.00,,2013-06-06 23:02:00,
2013-06-06 18:12:00,71.0,47.0,29.82,NE,49,1.0,5.0,43,0.00,,,0.00,,2013-06-06 23:12:00,
2013-06-06 18:22:00,71.0,46.0,29.82,North,5,0.0,6.0,41,0.00,,,0.00,,2013-06-06 23:22:00,
2013-06-06 18:30:00,70.0,46.0,29.81,North,349,0.0,9.0,43,0.00,,,0.00,,2013-06-06 23:30:00,
2013-06-06 18:33:00,71.0,46.0,29.82,North,5,0.0,6.0,41,0.00,,,0.00,,2013-06-06 23:33:00,
2013-06-06 18:43:00,71.0,46.0,29.82,North,5,0.0,6.0,41,0.00,,,0.00,,2013-06-06 23:43:00,
2013-06-06 18:52:00,70.0,46.0,29.81,North,349,0.0,9.0,43,0.00,,,0.00,,2013-06-06 23:52:00,
2013-06-06 19:02:00,70.0,46.0,29.81,North,349,0.0,9.0,43,0.00,,,0.00,,2013-06-07 00:02:00,
2013-06-06 19:12:00,70.0,46.0,29.81,North,349,0.0,9.0,43,0.00,,,0.00,,2013-06-07 00:12:00,
2013-06-06 19:22:00,70.0,46.0,29.81,North,349,0.0,9.0,43,0.00,,,0.00,,2013-06-07 00:22:00,
2013-06-06 19:52:00,69.0,47.0,29.82,NE,46,1.0,8.0,45,0.00,,,0.00,,2013-06-07 00:52:00,
2013-06-06 20:02:00,69.0,47.0,29.82,North,10,0.0,8.0,46,0.00,,,0.00,,2013-06-07 01:02:00,
2013-06-06 20:12:00,69.0,47.0,29.82,North,10,0.0,8.0,46,0.00,,,0.00,,2013-06-07 01:12:00,
2013-06-06 20:22:00,69.0,47.0,29.82,North,10,0.0,8.0,46,0.00,,,0.00,,2013-06-07 01:22:00,
2013-06-06 20:32:00,68.0,47.0,29.82,North,5,0.0,8.0,47,0.00,,,0.00,,2013-06-07 01:32:00,
2013-06-06 20:42:00,68.0,47.0,29.82,North,5,0.0,8.0,47,0.00,,,0.00,,2013-06-07 01:42:00,
2013-06-06 20:52:00,68.0,47.0,29.82,North,5,0.0,8.0,47,0.00,,,0.00,,2013-06-07 01:52:00,
2013-06-06 21:02:00,67.0,47.0,29.82,North,0,0.0,3.0,48,0.00,,,0.00,,2013-06-07 02:02:00,
2013-06-06 21:12:00,67.0,47.0,29.82,North,0,0.0,3.0,48,0.00,,,0.00,,2013-06-07 02:12:00,
2013-06-06 21:22:00,67.0,47.0,29.82,North,0,0.0,3.0,48,0.00,,,0.00,,2013-06-07 02:22:00,
2013-06-06 21:32:00,67.0,47.0,29.82,North,0,0.0,3.0,48,0.00,,,0.00,,2013-06-07 02:32:00,
2013-06-06 21:42:00,67.0,47.0,29.82,North,0,0.0,3.0,48,0.00,,,0.00,,2013-06-07 02:42:00,
2013-06-06 21:52:00,66.0,46.0,29.83,North,5,0.0,0.0,49,0.00,,,0.00,,2013-06-07 02:52:00,
2013-06-06 22:02:00,66.0,47.0,29.83,North,5,0.0,2.0,51,0.00,,,0.00,,2013-06-07 03:02:00,
2013-06-06 22:12:00,66.0,47.0,29.83,North,5,0.0,2.0,51,0.00,,,0.00,,2013-06-07 03:12:00,
2013-06-06 22:22:00,65.0,47.0,29.84,North,0,0.0,1.0,53,0.00,,,0.00,,2013-06-07 03:22:00,
2013-06-06 22:33:00,65.0,47.0,29.84,North,0,0.0,1.0,53,0.00,,,0.00,,2013-06-07 03:33:00,
2013-06-06 22:43:00,65.0,47.0,29.84,North,0,0.0,1.0,53,0.00,,,0.00,,2013-06-07 03:43:00,
2013-06-06 22:53:00,64.0,48.0,29.85,North,0,0.0,0.0,56,0.00,,,0.00,,2013-06-07 03:53:00,
2013-06-06 23:03:00,63.0,47.0,29.85,North,0,0.0,0.0,56,0.00,,,0.00,,2013-06-07 04:03:00,
2013-06-06 23:12:00,63.0,47.0,29.85,North,0,0.0,0.0,56,0.00,,,0.00,,2013-06-07 04:12:00,
2013-06-06 23:23:00,63.0,48.0,29.85,North,0,0.0,0.0,58,0.00,,,0.00,,2013-06-07 04:23:00,
2013-06-06 23:33:00,62.0,48.0,29.85,North,0,0.0,0.0,61,0.00,,,0.00,,2013-06-07 04:33:00,
2013-06-06 23:42:00,62.0,48.0,29.85,North,0,0.0,0.0,61,0.00,,,0.00,,2013-06-07 04:42:00,
2013-06-06 23:53:00,61.0,49.0,29.85,North,0,0.0,0.0,64,0.00,,,0.00,,2013-06-07 04:53:00,